Presure
218 223 197 205 195 189 186 171 235 227 212 192 188 186 163 170 181 174 110 104 96 94 97 103 105 109 115 108 116 117 117 169 166 165 163 142 123 123 121 119 123 163 172
229 223 227 196 203 206 185 189 179 228 218 219 188 195 176 176 172 176 178 176 181 127 100 101 103 101 104 104 101 105 105 107 110 112 166 150 123 114 120 152 167 172 170
241 233 218 227 212 196 209 181 189 174 240 223 218 170 219 157 191 179 188 177 172 173 173 143 110 101 102 104 109 108 106 104 103 104 110 109 114 114 162 160 169 175 178
252 242 226 220 237 231 198 210 180 189 173 238 187 191 215 172 212 181 174 172 167 158 171 172 174 173 107 108 174 169 107 102 107 118 118 112 172 110 138 172 179 117 182
264 252 238 232 229 246 230 199 211 195 188 196 243 162 197 209 196 214 164 178 178 85 179 97 181 179 173 174 173 177 170 108 171 167 176 179 181 104 181 185 97 109 167
273 268 244 242 134 241 246 232 201 208 201 183 195 230 186 195 215 217 207 199 193 169 177 165 177 179 183 182 180 182 184 183 181 176 180 184 186 184 173 92 97 96 147
324 270 268 245 243 249 222 240 238 202 208 223 187 189 205 238 211 200 226 214 204 197 206 202 214 188 194 180 182 182 184 182 189 191 187 164 179 177 91 97 134 102 174
453 471 428 260 232 246 246 248 238 237 202 207 221 187 185 199 221 211 196 199 199 201 180 181 173 199 217 203 194 199 190 207 190 188 177 171 169 172 170 167 165 181 174
428 437 434 434 263 236 244 258 244 238 116 200 205 221 186 182 190 214 223 225 205 187 198 195 182 180 170 163 200 205 182 172 174 174 172 166 174 100 95 97 187 190 97
266 400 394 407 414 336 245 243 254 240 238 222 201 204 214 193 183 181 169 199 226 233 233 214 198 194 202 187 188 168 173 182 182 183 188 188 191 191 193 197 160 208 201
389 385 374 393 399 415 356 251 249 246 232 237 218 202 217 211 193 185 182 172 189 208 225 235 230 221 212 191 192 191 193 194 207 205 197 192 192 195 195 203 204 220 228
372 362 345 359 369 394 393 238 245 252 236 208 232 211 199 218 210 198 186 183 172 204 162 212 220 238 237 230 219 213 198 198 195 190 189 191 202 204 202 211 224 223 221
343 348 344 347 348 370 373 365 289 249 239 225 229 224 203 193 201 207 197 189 180 172 168 159 205 207 216 235 234 241 223 213 209 204 206 206 204 220 219 219 221 216 218
329 323 333 314 351 337 351 350 298 254 252 228 223 228 215 200 191 207 203 193 188 177 173 170 157 151 203 201 208 229 233 229 229 225 222 225 224 220 218 201 215 214 180
329 320 313 327 323 357 337 341 328 270 257 236 224 224 224 223 200 191 208 202 193 183 175 177 179 193 153 202 195 151 169 221 220 221 220 217 218 215 215 214 212 192 160
298 295 296 310 322 318 329 325 317 273 254 253 242 222 223 224 205 199 194 204 200 192 184 179 174 193 210 153 157 157 145 148 148 203 205 208 210 211 210 196 195 206 145
289 299 294 293 292 316 340 313 307 272 258 254 241 231 222 221 235 206 195 200 201 198 193 186 181 176 174 182 177 203 170 156 179 199 161 143 143 142 181 176 201 202 148
285 285 284 291 285 309 329 313 305 274 252 245 240 235 224 223 223 231 198 190 199 199 195 194 190 183 176 174 173 175 177 190 200 202 198 187 180 196 181 181 201 200 192
287 285 283 283 282 303 323 310 301 276 252 240 235 236 229 221 222 231 217 194 195 200 200 197 195 191 187 181 176 173 172 172 180 183 187 200 200 202 169 187 201 198 195
286 284 287 290 291 295 314 305 300 268 254 242 232 233 233 224 224 222 234 195 202 179 198 199 199 194 192 190 185 185 181 176 169 172 184 191 149 159 164 197 199 197 177
282 277 284 275 292 293 311 305 299 277 253 247 232 227 233 228 222 230 225 228 193 197 178 194 199 199 195 191 190 189 185 183 181 179 177 173 172 171 169 169 171 187 184
282 286 290 291 282 300 311 302 292 283 260 250 219 236 186 170 225 218 219 229 223 192 198 195 185 196 194 193 193 193 190 188 185 182 181 181 181 182 181 179 177 175 174
285 278 298 289 291 277 308 305 294 286 269 254 250 243 248 241 226 219 228 215 228 222 188 191 196 196 193 198 197 189 189 191 189 189 188 184 181 180 179 178 179 179 180
280 292 285 286 285 300 274 311 294 288 280 258 248 247 241 245 238 226 218 224 222 225 222 210 183 182 185 184 184 191 193 193 193 192 190 190 189 189 189 189 186 183 181
313 294 286 285 291 288 268 292 295 283 284 241 240 242 244 245 242 235 224 218 219 226 219 220 193 197 198 197 191 190 190 187 191 193 193 192 191 191 191 189 189 189 186
304 290 306 314 316 314 312 262 293 291 280 274 248 242 241 241 244 244 235 225 220 214 227 229 214 214 200 181 184 199 199 195 194 192 192 194 195 192 197 196 194 195 193
Wind_Speed
116 118 117 114 112 108 109 106 100 102 119 111 106 103 90 90 95 90 71 67 57 54 52 57 57 57 59 52 57 58 54 67 65 63 61 58 57 57 56 57 59 53 58
115 122 115 116 113 117 114 113 108 103 109 110 103 113 101 98 92 93 90 88 88 76 62 60 59 54 53 51 51 52 51 51 51 54 65 62 58 52 58 58 56 60 59
118 123 114 116 116 120 118 112 112 107 105 110 111 96 113 88 106 98 96 90 89 90 88 77 68 55 54 55 58 57 55 52 52 53 56 55 56 54 58 56 60 64 64
116 122 121 121 116 117 119 119 114 114 107 108 103 108 108 101 114 105 97 95 85 82 87 86 89 88 66 64 83 77 58 54 57 58 58 59 72 53 60 65 66 49 66
122 128 126 127 124 119 121 121 120 115 115 114 109 100 110 110 107 112 92 97 93 44 92 54 91 91 87 86 84 85 79 59 78 73 78 77 76 51 72 70 47 50 61
127 131 132 130 67 124 123 123 122 121 117 113 115 110 104 111 110 112 112 109 107 91 93 83 87 89 92 90 88 87 88 85 83 81 82 79 78 75 69 46 51 48 59
61 130 134 133 131 128 111 125 123 123 120 118 117 112 110 111 111 108 111 110 107 105 108 104 101 91 96 88 87 86 87 84 86 85 84 73 76 73 47 54 60 52 66
73 67 91 132 131 130 128 127 126 125 121 119 119 114 112 110 109 100 106 105 104 104 98 95 88 95 95 92 91 91 86 86 85 84 80 75 74 73 70 69 66 72 70
64 67 72 80 133 132 130 130 127 127 64 117 119 119 114 111 109 105 105 103 103 102 101 100 95 92 85 81 88 89 84 81 81 81 79 77 78 60 55 58 77 77 56
46 68 73 72 79 110 134 131 130 128 128 127 120 118 117 116 111 107 100 100 100 98 98 100 100 97 93 90 89 84 85 86 86 85 84 84 84 84 83 83 74 81 79
61 64 69 69 74 75 105 134 131 129 128 128 126 120 119 117 115 111 105 100 98 98 95 93 96 96 94 91 89 88 88 87 86 86 86 85 83 83 83 82 81 73 69
62 67 73 68 72 72 83 132 132 130 129 116 126 125 119 119 117 115 109 105 98 98 94 96 92 88 88 90 90 89 89 88 85 83 82 83 84 84 82 79 74 70 68
64 67 68 70 76 71 82 93 126 131 131 130 129 126 124 118 118 116 113 108 102 99 98 90 92 90 86 83 84 81 86 88 87 85 86 86 82 80 78 75 71 71 69
62 65 66 74 61 79 84 93 122 130 130 130 128 127 126 123 116 118 114 110 107 103 100 96 91 89 90 87 84 80 79 80 80 80 81 79 76 76 75 71 72 71 69
59 61 66 61 71 64 80 89 105 127 128 130 130 129 127 126 122 115 116 112 109 106 103 99 95 92 91 88 87 88 84 78 79 79 77 77 76 76 74 73 72 72 73
66 66 66 59 58 74 80 90 98 124 128 129 131 131 129 128 125 120 116 115 112 109 106 101 99 92 91 95 93 91 89 86 84 83 81 79 78 77 75 76 76 73 77
71 67 69 69 75 68 74 88 98 122 126 128 131 131 130 127 125 123 118 115 114 111 108 106 102 99 99 95 95 90 91 91 88 85 87 84 82 81 80 80 76 76 81
78 78 78 74 80 68 72 88 98 118 126 127 131 131 130 128 127 124 122 116 116 114 111 108 105 103 102 102 98 95 92 89 88 87 87 85 86 84 83 82 79 79 80
80 81 83 85 82 74 74 88 97 115 127 127 128 129 131 127 126 126 125 120 117 116 113 110 108 105 104 103 101 98 96 95 91 89 88 87 86 86 85 83 83 83 83
84 82 84 83 85 78 78 90 97 118 127 128 127 127 130 129 126 126 124 121 121 108 114 113 111 107 105 104 103 100 98 98 96 95 92 89 87 93 91 86 86 86 85
87 84 84 82 82 83 81 91 97 111 123 125 127 125 128 130 126 128 126 124 121 118 109 112 112 110 109 106 105 103 102 101 100 98 96 95 94 94 93 91 90 90 89
86 86 83 82 82 81 85 91 98 106 119 127 117 129 98 94 130 125 125 125 125 119 120 117 110 114 111 109 108 106 106 104 102 100 99 98 98 97 96 94 93 93 94
90 84 85 82 82 87 80 91 98 105 116 124 126 128 128 130 130 127 127 125 125 125 117 118 118 116 113 113 112 108 107 106 104 103 102 101 100 99 98 99 99 98 97
86 93 88 84 81 82 89 85 98 104 112 122 125 127 126 128 129 130 127 127 126 126 127 128 113 111 110 108 107 112 113 111 109 109 108 107 106 104 104 103 103 103 102
89 97 93 88 85 87 93 90 95 105 109 122 126 126 127 128 129 131 130 127 127 127 128 127 121 119 121 120 117 115 115 112 114 113 112 110 109 108 108 107 106 107 105
83 86 80 79 86 90 92 99 96 102 110 116 126 128 127 128 127 128 130 131 129 127 128 129 128 127 124 114 117 124 123 121 119 115 114 114 114 111 112 113 111 112 111
Wind_Direction
241 238 235 232 234 235 234 235 227 230 234 235 235 234 238 237 236 237 244 245 246 245 246 246 246 248 250 249 254 257 257 261 265 268 271 273 273 275 278 281 283 286 290
239 240 236 235 232 234 235 234 234 227 230 232 234 235 237 238 238 238 236 236 238 244 247 246 247 249 250 250 252 254 254 258 262 265 269 272 272 274 277 279 283 287 288
236 237 236 236 233 234 233 235 235 235 225 229 231 234 235 237 238 240 240 237 237 240 241 246 251 252 253 253 253 254 256 257 259 262 265 268 271 273 277 278 283 286 287
233 235 234 236 234 231 234 232 233 234 234 226 231 233 232 236 235 238 239 238 239 240 242 244 245 248 254 255 254 257 257 258 261 263 266 267 272 270 275 279 281 277 284
234 231 232 232 232 228 229 234 232 232 234 233 226 234 233 234 235 235 240 241 242 240 243 246 245 248 251 253 255 256 258 259 263 265 267 268 271 267 276 279 272 276 283
235 233 232 231 232 229 226 226 233 232 231 234 234 227 231 234 234 234 237 239 241 242 243 244 245 248 250 251 253 256 257 258 261 264 267 269 271 272 273 272 272 275 280
244 235 233 232 231 228 227 226 225 233 231 229 235 234 231 229 233 236 234 236 239 242 245 246 247 247 248 251 253 254 257 260 262 265 266 267 269 271 271 271 274 275 281
239 235 235 231 234 232 229 226 225 225 233 231 229 234 236 234 232 232 236 237 239 240 243 246 246 248 248 250 253 256 256 256 259 260 263 266 268 270 270 273 274 278 280
233 227 227 230 228 231 230 227 226 225 232 232 232 229 235 237 237 234 234 235 238 241 241 243 245 246 247 250 249 251 254 256 258 259 262 264 266 267 268 271 275 278 277
226 223 223 224 224 224 227 227 225 226 225 228 232 232 230 235 237 237 237 237 236 234 235 240 244 246 246 248 249 253 253 255 257 258 260 262 264 267 270 272 274 275 277
218 215 218 221 223 218 220 225 224 224 226 226 228 231 229 231 235 237 237 238 237 239 237 236 238 241 244 248 250 251 253 254 253 256 258 261 264 266 268 270 272 270 269
212 210 217 217 217 215 214 222 223 223 224 226 226 229 231 228 231 235 236 237 238 238 241 240 239 239 241 243 245 247 252 254 255 257 259 261 263 265 266 268 267 268 268
208 208 211 215 216 213 212 212 216 221 221 224 225 225 229 231 232 232 235 236 237 239 241 240 242 243 242 241 243 244 248 251 254 256 258 259 261 261 263 264 265 266 267
205 208 208 215 211 212 211 211 212 219 220 222 224 224 226 230 231 230 232 235 236 237 239 241 239 239 244 245 246 244 244 247 249 251 253 255 256 258 261 263 263 265 267
188 192 205 205 213 212 209 208 212 215 217 220 223 224 225 225 230 232 230 233 235 237 238 240 241 241 242 244 246 246 246 246 248 251 252 255 256 258 260 260 262 264 268
197 202 207 206 208 210 208 208 209 212 216 218 219 223 224 224 229 231 233 231 233 235 237 238 239 240 241 243 246 248 247 250 252 252 253 254 256 257 258 262 264 263 269
199 190 197 204 209 208 209 207 208 211 214 216 219 221 224 224 223 229 232 231 232 234 236 237 238 239 242 243 245 243 248 251 251 251 254 256 257 260 261 263 263 264 269
203 204 203 200 208 207 210 204 206 210 213 216 218 220 223 224 224 223 230 232 233 233 235 236 237 238 240 243 245 247 249 250 249 250 253 256 259 259 261 263 261 263 265
203 205 204 206 208 207 208 204 205 209 213 216 218 220 223 225 226 224 225 232 234 233 234 236 237 238 240 242 244 246 248 250 251 253 254 254 255 256 262 261 260 262 265
205 208 207 208 207 205 206 204 203 209 213 216 220 220 222 225 226 226 225 232 233 234 236 236 237 239 240 242 244 245 247 249 251 252 253 255 263 260 261 259 261 263 269
208 215 210 210 212 207 205 206 204 209 213 216 220 222 222 225 227 226 226 226 232 233 235 239 239 239 240 242 244 245 247 248 250 252 254 256 258 260 262 264 266 265 268
210 212 213 208 210 209 207 205 206 208 213 216 219 221 223 224 226 229 229 227 228 234 235 238 240 241 242 243 245 246 248 249 251 253 254 256 257 260 262 264 267 267 267
210 215 213 214 210 210 210 208 207 207 210 216 219 222 222 222 225 228 229 231 229 230 236 238 239 241 243 244 246 248 250 251 253 254 256 257 259 260 261 262 263 265 267
212 212 216 217 212 211 211 211 210 209 210 214 218 221 224 224 224 227 230 231 231 231 232 235 239 242 243 245 247 248 249 251 252 253 255 256 257 259 260 262 264 265 267
209 214 218 219 220 214 214 211 212 212 211 218 220 221 223 225 225 225 229 232 233 232 234 236 239 240 241 244 247 248 250 252 253 254 255 257 258 260 262 263 265 267 269
209 211 212 215 218 221 221 214 212 213 213 212 219 222 224 226 226 227 227 230 233 234 234 235 238 238 241 244 247 247 249 252 254 255 256 258 259 262 263 264 267 268 270